Zurück zum Katalog

FENGYUN 1C DEB

AktivSSO
NORAD 36719·DEBRIS·🇨🇳 China

Gestartet May 10, 1999 von Taiyuan Satellite Launch Center

Loading…

Nächste Überflüge (nächste 24 Stunden)

TLE

VeraltetSource: Space-Track

Epoche: Sep 1, 2026, 05:06 UTC

1 36719U 99025EAR 26244.21277520  .00001705  00000-0  57640-3 0  9993
2 36719  98.5511  28.8244 0081708  50.9107 309.9309 14.36274622681174

Verfolge FENGYUN 1C DEB in Echtzeit mit AllMySat

Download on the App Store